Weather History for Chicago DuPage, IL

Change the Weather History Date:

Sunday, January 6, 2013

  Actual Average Record
Temperature  
Mean Temperature 25 °F 23 °F  
Max Temperature 35 °F 31 °F 61 °F (2008)
Min Temperature 14 °F 15 °F -17 °F (2014)
Degree Days  
Heating Degree Days 40 42  
Month to date heating degree days 259 250  
Since 1 July heating degree days 2635 2677  
Cooling Degree Days 0 0  
Month to date cooling degree days 0 0  
Year to date cooling degree days 0 0  
Moisture  
Dew Point 22 °F    
Average Humidity 82    
Maximum Humidity 92    
Minimum Humidity 69    
Precipitation  
Precipitation 0.00 in 0.04 in 0.34 in (1998)
Month to date precipitation 0.01 0.30  
Year to date precipitation 0.01 0.30  
Sea Level Pressure  
Sea Level Pressure 30.12 in    
Wind  
Wind Speed 11 mph (West)    
Max Wind Speed 20 mph    
Max Gust Speed 26 mph    
Visibility 6 miles    
Events      
T = Trace of Precipitation, MM = Missing Value Source: NWS Daily Summary

Daily Weather History Graph

Daily Weather History Graph

Search for Another Location

Airport:

Trip Planner

Search our weather history database for the weather conditions in past years. The results will help you decide how hot, cold, wet, or windy it might be!

Date:

Astronomy

Jan. 06, 2013 Rise Set
Actual Time 7:20 AM CST 4:37 PM CST
Civil Twilight 6:49 AM CST 5:08 PM CST
Nautical Twilight 6:14 AM CST 5:43 PM CST
Astronomical Twilight 5:40 AM CST 6:17 PM CST
Moon 1:32 AM CST (1/6) 12:06 PM CST (1/6)
Length of Visible Light 10h 19m
Length of Day
9h 16m
Waning Crescent, 33% of the Moon is Illuminated
Jan 6
Waning Crescent
Jan 11
New
Jan 18
First Quarter
Jan 26
Full
Feb 3
Last Quarter

Hourly Weather History & Observations

Time (CST) Temp. Windchill Dew Point Humidity Pressure Visibility Wind Dir Wind Speed Gust Speed Precip Events Conditions
12:52 AM 35.1 °F 25.9 °F 32.0 °F 89% 29.94 in 7.0 mi SW 13.8 mph 24.2 mph N/A   Overcast
1:52 AM 35.1 °F 26.4 °F 32.0 °F 89% 29.94 in 8.0 mi SW 12.7 mph - N/A   Overcast
2:30 AM 35.6 °F 27.5 °F 32.0 °F 87% 29.91 in 8.0 mi SW 11.5 mph - N/A   Overcast
2:39 AM 35.6 °F 26.6 °F 32.0 °F 87% 29.91 in 8.0 mi SW 13.8 mph - N/A   Overcast
2:52 AM 35.1 °F 26.9 °F 32.0 °F 89% 29.94 in 7.0 mi WSW 11.5 mph - N/A   Overcast
3:52 AM 30.9 °F 20.2 °F 27.0 °F 85% 29.94 in 6.0 mi West 15.0 mph 24.2 mph N/A   Overcast
4:17 AM 28.4 °F 17.0 °F 24.8 °F 86% 29.92 in 8.0 mi West 15.0 mph 21.9 mph N/A   Overcast
4:52 AM 27.0 °F 14.7 °F 23.0 °F 85% 29.96 in 8.0 mi West 16.1 mph 24.2 mph N/A   Overcast
5:52 AM 26.1 °F 13.6 °F 21.0 °F 81% 29.99 in 8.0 mi West 16.1 mph - N/A   Overcast
6:52 AM 24.1 °F 11.5 °F 19.9 °F 84% 30.01 in 8.0 mi West 15.0 mph - N/A   Overcast
7:52 AM 23.0 °F 11.1 °F 18.0 °F 81% 30.04 in 6.0 mi West 12.7 mph - N/A   Haze
8:27 AM 21.2 °F 7.8 °F 17.6 °F 86% 30.02 in 6.0 mi WNW 15.0 mph 20.7 mph N/A   Haze
8:52 AM 23.0 °F 11.1 °F 18.0 °F 81% 30.07 in 6.0 mi West 12.7 mph - N/A   Haze
9:52 AM 24.1 °F 12.5 °F 18.0 °F 77% 30.11 in 6.0 mi WNW 12.7 mph - N/A   Haze
10:52 AM 26.1 °F 15.6 °F 19.9 °F 78% 30.12 in 6.0 mi NW 11.5 mph - N/A   Haze
11:52 AM 28.0 °F 16.1 °F 19.9 °F 72% 30.12 in 6.0 mi NW 16.1 mph 23.0 mph N/A   Haze
12:52 PM 30.0 °F 17.5 °F 21.9 °F 72% 30.14 in 6.0 mi WNW 19.6 mph 24.2 mph N/A   Haze
1:52 PM 30.0 °F 19.5 °F 21.9 °F 72% 30.16 in 7.0 mi NW 13.8 mph 21.9 mph N/A   Scattered Clouds
2:52 PM 30.0 °F 20.0 °F 21.9 °F 72% 30.20 in 7.0 mi WNW 12.7 mph - N/A   Scattered Clouds
3:02 PM 30.2 °F 20.8 °F 21.2 °F 69% 30.17 in 6.0 mi WNW 11.5 mph - N/A   Haze
3:52 PM 28.9 °F 21.1 °F 21.0 °F 72% 30.22 in 6.0 mi NW 8.1 mph - N/A   Haze
4:52 PM 26.1 °F 18.4 °F 19.9 °F 78% 30.26 in 6.0 mi WNW 6.9 mph - N/A   Haze
5:52 PM 24.1 °F 15.2 °F 19.9 °F 84% 30.30 in 6.0 mi WNW 8.1 mph - N/A   Clear
6:52 PM 23.0 °F 15.8 °F 18.0 °F 81% 30.31 in 7.0 mi West 5.8 mph - N/A   Clear
7:52 PM 21.0 °F 16.2 °F 17.1 °F 85% 30.33 in 6.0 mi West 3.5 mph - N/A   Clear
8:52 PM 18.0 °F - 15.1 °F 88% 30.33 in 5.0 mi Calm Calm - N/A   Clear
9:52 PM 19.0 °F 12.3 °F 16.0 °F 88% 30.35 in 5.0 mi SW 4.6 mph - N/A   Clear
10:52 PM 18.0 °F 12.7 °F 16.0 °F 92% 30.35 in 5.0 mi SW 3.5 mph - N/A   Clear
11:52 PM 16.0 °F 10.4 °F 14.0 °F 92% 30.35 in 5.0 mi SSW 3.5 mph - N/A   Clear